Temp
15 14 13 13 13 13 13 13 12 12 12 12 12 12 12 12 12 12 11 11 11 11 11 11 11 10 9 8 8 8 7 6
15 15 14 14 13 13 13 13 13 13 12 12 12 12 12 11 12 11 11 11 11 11 11 10 9 9 8 8 8 8 7 7
15 15 14 14 14 14 13 13 13 13 12 12 12 12 12 12 12 11 11 10 11 10 10 9 9 8 9 8 8 8 7 6
15 15 15 15 15 14 14 14 13 13 12 12 12 12 12 11 11 11 11 10 10 10 9 9 8 8 8 8 9 9 8 5
16 16 16 15 15 14 14 14 13 13 13 12 12 12 12 12 12 11 10 10 9 9 9 9 8 8 8 8 7 7 7 4
17 17 17 16 16 15 15 14 13 13 13 12 12 12 12 12 11 11 10 9 9 9 9 8 8 8 8 7 6 5 5 3
16 17 16 15 15 15 14 14 14 13 13 12 12 12 12 12 11 10 10 9 9 9 8 8 8 7 7 6 6 5 4 2
16 16 16 16 16 16 15 14 14 13 12 13 13 13 12 12 12 11 10 9 9 9 8 7 6 6 6 5 4 4 3 2
18 18 17 17 16 16 15 15 14 13 13 13 13 12 11 11 11 11 10 9 9 8 8 8 6 6 6 4 3 3 2 1
18 18 17 17 17 16 16 15 14 14 14 14 14 12 11 11 10 9 9 9 8 7 7 7 6 5 4 3 3 2 0 -0
18 18 17 17 17 17 16 16 15 15 14 15 14 12 13 11 11 9 8 8 7 6 6 6 5 4 3 3 2 1 -0 -0
19 19 18 18 17 17 17 17 16 15 14 14 14 13 12 11 9 8 8 8 7 7 6 5 3 3 2 2 1 0 -0 -1
18 18 19 19 19 18 18 17 16 16 15 15 14 14 11 9 9 8 8 8 7 6 5 4 2 2 1 1 1 0 -0 -1
18 18 18 18 16 17 16 17 16 16 15 15 14 12 10 9 9 8 8 7 6 4 3 2 2 1 1 1 0 0 -0 -0
18 18 17 16 15 15 16 16 15 15 15 14 13 11 9 9 8 8 7 6 5 3 2 1 0 -0 -0 0 0 0 -0 -0
16 15 15 14 14 14 13 14 13 12 11 10 9 9 8 8 7 7 6 5 3 3 1 0 -1 -0 -1 -0 -0 -0 -0 -1
14 14 14 14 14 14 14 14 13 12 11 10 9 8 7 7 6 6 5 3 2 1 -0 -1 -0 -0 -1 -0 -0 0 -0 -0
14 14 14 14 14 14 14 14 13 11 9 8 8 8 7 6 6 5 3 2 1 -1 -2 -1 -0 -1 -2 -0 -0 -0 -0 -0
13 13 13 13 13 13 13 13 12 10 8 7 7 6 5 4 4 2 1 0 -1 -1 -1 -1 -1 -1 -1 -0 -1 -1 -1 -1
Height
1521 1524 1528 1531 1534 1537 1540 1542 1545 1548 1551 1554 1555 1559 1561 1563 1564 1566 1567 1569 1571 1573 1574 1574 1574 1573 1572 1572 1571 1568 1568 1568
1519 1522 1526 1529 1531 1535 1537 1540 1542 1545 1546 1549 1553 1556 1559 1561 1561 1564 1566 1567 1570 1571 1572 1571 1570 1569 1569 1568 1566 1565 1565 1565
1517 1519 1522 1524 1527 1530 1533 1536 1539 1541 1545 1547 1551 1554 1557 1558 1559 1561 1564 1565 1566 1567 1568 1567 1566 1567 1566 1565 1564 1563 1563 1562
1512 1515 1517 1520 1521 1524 1528 1533 1537 1540 1542 1544 1548 1550 1553 1554 1556 1558 1561 1562 1563 1563 1563 1563 1564 1564 1563 1563 1562 1560 1560 1561
1509 1510 1513 1516 1520 1523 1526 1529 1533 1537 1540 1542 1544 1545 1548 1550 1552 1555 1557 1559 1559 1560 1560 1560 1560 1560 1560 1559 1560 1559 1557 1558
1501 1503 1506 1510 1516 1519 1523 1526 1530 1532 1535 1538 1541 1543 1545 1547 1549 1551 1553 1555 1556 1556 1557 1556 1556 1556 1556 1555 1553 1555 1555 1555
1496 1500 1505 1507 1511 1515 1518 1521 1524 1528 1532 1535 1537 1539 1541 1543 1544 1547 1549 1550 1552 1552 1552 1552 1551 1551 1550 1551 1550 1551 1550 1550
1489 1493 1496 1500 1504 1507 1511 1516 1519 1523 1527 1530 1531 1533 1535 1538 1539 1541 1544 1545 1546 1547 1547 1550 1551 1548 1547 1547 1549 1547 1547 1547
1481 1484 1488 1493 1498 1502 1506 1510 1513 1518 1522 1525 1526 1528 1531 1532 1533 1534 1537 1539 1540 1540 1541 1541 1544 1544 1542 1543 1543 1542 1541 1541
1475 1479 1482 1487 1493 1496 1500 1504 1508 1513 1517 1519 1519 1522 1525 1526 1528 1531 1531 1534 1535 1536 1536 1537 1538 1540 1538 1539 1539 1538 1538 1538
1472 1474 1477 1482 1486 1491 1496 1500 1503 1507 1510 1513 1515 1516 1518 1520 1521 1523 1526 1528 1530 1531 1534 1534 1534 1535 1536 1536 1535 1535 1535 1535
1469 1472 1475 1479 1483 1488 1492 1495 1498 1502 1506 1509 1510 1511 1512 1513 1515 1518 1521 1523 1525 1527 1528 1529 1529 1531 1531 1530 1531 1530 1530 1530
1469 1471 1474 1477 1481 1484 1487 1490 1494 1499 1502 1503 1505 1506 1507 1509 1512 1516 1518 1520 1522 1524 1523 1524 1526 1527 1526 1526 1525 1525 1525 1525
1467 1469 1471 1474 1477 1481 1484 1489 1493 1494 1496 1497 1498 1498 1501 1504 1507 1511 1513 1516 1517 1518 1519 1521 1523 1523 1524 1523 1522 1521 1521 1520
1465 1467 1469 1472 1476 1480 1484 1486 1487 1488 1489 1489 1490 1491 1494 1500 1504 1507 1509 1511 1512 1516 1518 1519 1519 1518 1517 1518 1517 1518 1517 1516
1465 1468 1471 1473 1476 1477 1480 1481 1481 1483 1483 1485 1487 1490 1494 1498 1500 1502 1504 1506 1510 1509 1509 1511 1512 1512 1512 1514 1513 1512 1511 1510
1465 1467 1469 1472 1473 1474 1476 1476 1477 1478 1478 1481 1485 1489 1491 1493 1496 1500 1504 1506 1507 1507 1509 1505 1506 1506 1508 1508 1506 1505 1504 1502
1467 1469 1472 1472 1473 1474 1475 1475 1474 1474 1476 1478 1481 1483 1485 1488 1492 1494 1497 1500 1502 1502 1502 1501 1503 1502 1502 1501 1499 1497 1496 1494
1470 1472 1473 1473 1473 1473 1472 1473 1472 1472 1473 1475 1476 1479 1483 1487 1490 1493 1496 1495 1491 1493 1499 1499 1497 1497 1496 1494 1492 1490 1487 1486
Wind_Speed
25 29 27 25 25 24 24 24 24 24 22 20 22 22 22 20 18 15 15 15 14 13 11 8 7 6 6 8 9 11 11 11
27 27 28 27 27 26 28 26 26 25 26 24 25 25 24 21 18 17 17 17 17 14 11 9 8 6 7 9 12 12 13 13
29 30 30 30 28 29 30 30 29 29 29 27 27 21 21 19 18 19 19 18 16 15 13 10 8 7 11 12 12 14 15 14
32 33 32 30 31 32 31 31 31 30 28 28 27 24 22 21 22 23 23 21 19 17 14 12 9 10 11 13 15 18 17 15
33 33 34 34 32 30 29 30 31 32 32 32 31 29 29 26 24 25 24 22 20 18 17 14 11 11 11 12 17 21 18 14
38 38 37 35 33 32 30 32 34 35 35 35 33 30 30 26 25 25 25 24 22 21 18 15 12 11 9 15 20 21 17 13
42 40 40 40 37 36 36 35 35 39 40 38 36 35 33 30 26 27 27 26 25 22 20 16 14 11 14 23 25 18 14 13
42 42 43 42 42 39 39 40 40 41 42 42 38 36 36 32 29 29 31 30 28 25 21 13 12 15 21 23 18 18 14 15
45 45 44 43 42 42 42 43 43 39 40 40 36 37 36 35 34 32 32 33 30 27 22 24 21 24 29 20 17 12 15 14
39 45 45 43 41 43 43 43 43 38 37 31 34 37 40 40 39 36 32 33 31 24 23 19 21 22 21 12 10 13 12 10
26 28 37 41 39 37 39 40 42 40 40 30 30 36 34 39 40 39 36 35 30 22 20 19 16 13 8 10 10 12 10 9
14 17 22 28 30 31 30 33 39 40 40 32 29 32 36 38 38 35 37 34 27 26 21 17 10 8 9 5 17 13 10 9
13 15 18 21 24 28 28 31 33 30 28 31 31 34 35 32 31 33 35 31 28 23 16 12 9 9 5 17 13 11 11 10
13 16 19 22 28 29 31 26 23 25 27 30 33 36 34 34 33 34 34 31 26 20 15 11 12 7 16 11 11 12 12 14
10 14 19 23 24 26 26 24 28 31 31 31 33 33 36 32 32 35 33 29 22 16 14 13 11 11 11 13 15 15 16 18
3 7 10 14 16 19 21 23 27 31 34 33 33 34 31 30 33 33 31 26 22 18 19 17 10 17 13 17 20 23 25 25
12 11 9 7 5 7 12 16 20 24 27 29 28 30 32 31 32 32 26 24 23 21 18 15 16 20 15 19 23 25 25 28
14 12 10 8 6 5 7 9 13 18 21 23 26 30 33 32 31 30 28 27 24 21 16 16 21 16 17 23 24 26 26 25
12 10 8 7 8 9 10 12 15 15 17 20 24 25 22 24 25 24 23 25 29 27 21 21 24 20 23 24 24 25 26 25
Wind_Direction
203 203 201 201 201 199 197 193 191 189 193 199 204 206 207 211 219 236 229 224 219 208 213 227 252 274 300 314 327 338 336 329
204 203 207 205 206 206 203 203 199 200 205 207 207 208 211 213 233 232 220 212 209 211 222 239 255 276 310 326 337 335 332 327
208 206 206 207 205 206 208 211 212 212 217 215 217 212 215 233 224 212 211 209 212 220 228 244 268 301 322 332 334 334 328 323
212 212 211 209 207 208 209 212 216 219 217 214 217 222 226 219 215 213 213 212 216 223 235 255 277 305 317 328 332 331 324 314
221 217 217 215 214 214 216 217 219 223 221 220 224 229 227 229 224 219 217 218 223 232 243 257 277 298 316 331 336 324 312 308
225 226 224 219 216 216 221 223 224 225 224 226 228 233 237 240 224 223 224 226 230 237 246 258 276 296 305 313 323 316 311 313
232 232 230 227 222 220 222 225 229 229 228 230 232 236 240 234 229 230 229 231 236 241 249 260 271 278 291 317 320 308 303 302
229 230 229 231 227 223 224 227 230 229 228 233 237 236 240 240 243 244 236 237 240 243 249 268 289 297 315 324 308 296 299 307
230 233 234 234 234 230 228 229 232 232 233 240 242 238 240 240 245 248 240 242 243 242 251 275 275 293 293 300 283 291 298 289
233 235 236 236 237 237 234 234 235 235 236 251 250 242 244 244 246 242 243 239 240 248 252 262 267 285 307 278 291 286 272 274
229 236 235 234 239 241 240 240 242 242 241 255 255 245 252 247 247 239 235 235 238 239 256 260 277 296 272 289 297 279 259 271
225 229 234 239 244 245 250 247 246 248 249 260 262 257 254 251 243 235 235 235 244 246 250 257 270 245 266 285 293 264 264 282
226 226 229 227 231 237 237 241 249 254 257 261 259 260 253 246 236 235 233 240 239 243 241 245 227 245 247 303 268 260 266 280
236 234 235 237 238 241 243 251 254 256 256 258 260 251 247 240 234 236 233 237 234 230 226 219 234 248 314 273 272 278 279 284
242 245 249 251 251 246 252 262 261 255 263 263 259 252 238 234 240 233 234 230 229 226 228 227 225 282 296 278 280 286 288 287
288 279 271 266 268 269 272 276 273 269 266 258 253 240 235 241 235 233 230 231 223 223 213 212 242 302 268 275 277 277 278 280
74 69 64 48 3 319 303 301 299 293 283 269 255 247 243 243 238 232 234 224 216 209 210 223 265 298 273 274 281 277 275 276
80 71 61 49 21 348 322 304 301 293 284 270 258 252 246 246 231 229 224 216 212 211 222 258 300 286 273 283 284 275 277 275
81 73 62 38 4 342 325 307 298 288 274 264 258 254 248 234 232 224 209 205 208 219 248 287 290 284 285 287 285 279 275 273